WetterOnline ( http://www.wetteronline.de )

Wetter aktuell Bischofsmais

Aktuelles Wetter: Zwiesel (613m)

6-stündlich | Neueste Meldungen
Ortszeit Temperatur Wetter
Mi, 17.10. 2:00 6.0° C wolkig
Di, 16.10. 20:00 11.1° C bedeckt
Di, 16.10. 14:00 18.7° C wolkenlos
Di, 16.10. 8:00 3.7° C wolkenlos
Di, 16.10. 2:00 6.3° C fast wolkenlos
Mo, 15.10. 20:00 12.9° C bedeckt
Mo, 15.10. 14:00 18.3° C bewölkt
Mo, 15.10. 8:00 5.1° C fast wolkenlos
Ortszeit Temperatur Wetter
Mi, 17.10. 3:00 5.4° C wolkig
Mi, 17.10. 2:50 5.4° C wolkig
Mi, 17.10. 2:40 5.4° C wolkig
Mi, 17.10. 2:30 5.6° C wolkig
Mi, 17.10. 2:20 5.6° C bewölkt
Mi, 17.10. 2:10 5.8° C wolkig
Mi, 17.10. 2:00 6.0° C wolkig
Mi, 17.10. 1:30 5.7° C bewölkt
Mi, 17.10. 1:00 6.1° C bewölkt
Mi, 17.10. 0:30 6.4° C wolkenlos
Mi, 17.10. 0:00 7.0° C wolkig
Ortszeit Relative Feuchte Sichtweite
Mi, 17.10. 2:00 96% 5.0 km
Di, 16.10. 20:00 79% 17 km
Di, 16.10. 14:00 43% 20 km
Di, 16.10. 8:00 99% 5.0 km
Di, 16.10. 2:00 93% 12 km
Mo, 15.10. 20:00 74% 26 km
Mo, 15.10. 14:00 42% 45 km
Mo, 15.10. 8:00 88% 25 km
Ortszeit Relative Feuchte Sichtweite
Mi, 17.10. 3:00 96% 6 km
Mi, 17.10. 2:50 96% -
Mi, 17.10. 2:40 95% -
Mi, 17.10. 2:30 97% 8 km
Mi, 17.10. 2:20 97% -
Mi, 17.10. 2:10 96% -
Mi, 17.10. 2:00 96% 5.0 km
Mi, 17.10. 1:30 95% 4.2 km
Mi, 17.10. 1:00 95% 7 km
Mi, 17.10. 0:30 93% 5.0 km
Mi, 17.10. 0:00 93% 8 km
Ortszeit Niederschlagsmenge Niederschlagsart
Mi, 17.10. 2:00 0.0 l/m2 in 6 Std. -
Di, 16.10. 20:00 0.0 l/m2 in 12 Std. -
Di, 16.10. 14:00 0.0 l/m2 in 6 Std. -
Di, 16.10. 8:00 0.0 l/m2 in 12 Std. -
Di, 16.10. 2:00 0.0 l/m2 in 6 Std. -
Mo, 15.10. 20:00 0.0 l/m2 in 12 Std. -
Mo, 15.10. 14:00 0.0 l/m2 in 6 Std. -
Mo, 15.10. 8:00 0.0 l/m2 in 12 Std. -
Ortszeit Niederschlagsmenge Niederschlagsart
Mi, 17.10. 3:00 0.0 l/m2 in 1 Std. -
Mi, 17.10. 2:50 keine Meldung -
Mi, 17.10. 2:40 keine Meldung -
Mi, 17.10. 2:30 0.0 l/m2 in 1 Std. -
Mi, 17.10. 2:20 keine Meldung -
Mi, 17.10. 2:10 keine Meldung -
Mi, 17.10. 2:00 0.0 l/m2 in 1 Std. -
Mi, 17.10. 1:30 0.0 l/m2 in 1 Std. -
Mi, 17.10. 1:00 0.0 l/m2 in 1 Std. -
Mi, 17.10. 0:30 0.0 l/m2 in 1 Std. -
Mi, 17.10. 0:00 0.0 l/m2 in 1 Std. -
Ortszeit Stärke Spitze Richtung
km/h Bft. km/h Grad Sektor
Mi, 17.10. 2:00 4 1 7 100° O
Di, 16.10. 20:00 4 1 18 230° SW
Di, 16.10. 14:00 11 2 20 240° SW
Di, 16.10. 8:00 4 1 7 350° N
Di, 16.10. 2:00 0 0 11 - -
Mo, 15.10. 20:00 6 1 13 330° NW
Mo, 15.10. 14:00 7 2 18 140° SO
Mo, 15.10. 8:00 4 1 14 120° SO
Ortszeit Stärke Spitze Richtung
km/h Bft. km/h Grad Sektor
Mi, 17.10. 3:00 4 1 4 140° SO
Mi, 17.10. 2:50 4 1 - 140° SO
Mi, 17.10. 2:40 4 1 - 190° S
Mi, 17.10. 2:30 4 1 4 140° SO
Mi, 17.10. 2:20 4 1 - 140° SO
Mi, 17.10. 2:10 2 1 - 250° W
Mi, 17.10. 2:00 4 1 7 100° O
Mi, 17.10. 1:30 0 0 7 - -
Mi, 17.10. 1:00 4 1 7 150° SO
Mi, 17.10. 0:30 4 1 7 30° NO
Mi, 17.10. 0:00 4 1 7 130° SO
Ortszeit Untergrenze Bedeckung Gattung
total tief tief mittel hoch
Mi, 17.10. 2:00 3000 m 6/8 6/8 - - -
Di, 16.10. 20:00 4500 m 8/8 8/8 - - -
Di, 16.10. 14:00 - 0/8 0/8 - - -
Di, 16.10. 8:00 - 0/8 0/8 - - -
Di, 16.10. 2:00 2400 m 1/8 1/8 - - -
Mo, 15.10. 20:00 5700 m 8/8 8/8 - - -
Mo, 15.10. 14:00 4500 m 8/8 7/8 - - -
Mo, 15.10. 8:00 7800 m 1/8 0/8 - - -
Ortszeit Bedeckungsgrad in Achtel und Wolkenuntergrenze
Mi, 17.10. 3:00 6(4200m)
Mi, 17.10. 2:50 6(4200m)
Mi, 17.10. 2:40 3(3900m) 5(4500m)
Mi, 17.10. 2:30 3(3000m) 7(4500m) 5(4500m)
Mi, 17.10. 2:20 3(3000m) 7(4500m)
Mi, 17.10. 2:10 5(3000m) 6(4500m)
Mi, 17.10. 2:00 6(3000m)
Mi, 17.10. 1:30 7(3000m) 7(4200m)
Mi, 17.10. 1:00 2(3300m) 4(4200m) 7(4800m)
Mi, 17.10. 0:30 3(4800m)
Mi, 17.10. 0:00 5(4800m)
Ortszeit Luftdruck NN (hPa) Tendenz (hPa in 3 Std.)
Mi, 17.10. 2:00 1022 - 0,3
Di, 16.10. 20:00 1021 + 1,0
Di, 16.10. 14:00 1018 0,0
Di, 16.10. 8:00 1021 + 1,0
Di, 16.10. 2:00 1019 + 0,3
Mo, 15.10. 20:00 1017 + 0,3
Mo, 15.10. 14:00 1016 - 0,3
Mo, 15.10. 8:00 1019 + 0,4
Ortszeit Luftdruck NN (hPa) Tendenz (hPa in 3 Std.)
Mi, 17.10. 3:00 1022 - 0,2
Mi, 17.10. 2:50 1022 keine Meldung
Mi, 17.10. 2:40 1022 keine Meldung
Mi, 17.10. 2:30 1022 - 0,2
Mi, 17.10. 2:20 1022 keine Meldung
Mi, 17.10. 2:10 1022 keine Meldung
Mi, 17.10. 2:00 1022 - 0,3
Mi, 17.10. 1:30 1022 0,0
Mi, 17.10. 1:00 1022 - 0,2
Mi, 17.10. 0:30 1022 - 0,1
Mi, 17.10. 0:00 1022 + 0,1
Ortszeit Schneehöhe (cm)
Mi, 17.10. 2:00 0
Di, 16.10. 20:00 0
Di, 16.10. 14:00 0
Di, 16.10. 8:00 0
Di, 16.10. 2:00 0
Mo, 15.10. 20:00 0
Mo, 15.10. 14:00 0
Mo, 15.10. 8:00 0
Ortszeit Schneehöhe (cm)
Mi, 17.10. 3:00 0
Mi, 17.10. 2:50 0
Mi, 17.10. 2:40 0
Mi, 17.10. 2:30 0
Mi, 17.10. 2:20 0
Mi, 17.10. 2:10 0
Mi, 17.10. 2:00 0
Mi, 17.10. 1:30 0
Mi, 17.10. 1:00 0
Mi, 17.10. 0:30 0
Mi, 17.10. 0:00 0
Link zu dieser Seite / Seite empfehlen

Das Wetter in ...